Regional Weather Roundup
Issued by NWS

Home | Current Version | Previous Version | Text Only | Print | Product List | Glossary On
Versions: 1 2 3 4 5 6 7 8 9 10 11 12 13 14 15 16 17 18 19 20 21 22 23 24 25 26 27 28 29 30 31 32 33 34 35 36 37 38 39 40 41 42 43 44 45 46 47 48 49 50
000
ASUS45 KCYS 010810
RWRWY

WYOMING REGIONAL WEATHER ROUNDUP
NATIONAL WEATHER SERVICE CHEYENNE WY
200 AM MDT SUN MAY 01 2016

NOTE:  "FAIR" INDICATES FEW OR NO CLOUDS BELOW 12,000 FEET
WITH NO SIGNIFICANT WEATHER AND/OR OBSTRUCTIONS TO VISIBILITY.

WYZ001-010900-
YELLOWSTONE NATIONAL PARK

CITY           SKY/WX    TMP DP  RH WIND       PRES   REMARKS
LK YELLOWSTONE   N/A     30  21  69 VRB5      30.28F WCI  25
W YELLOWSTONE  NOT AVBL

$$
WYZ002>013-054>058-071-098>099-010900-
NORTHERN WYOMING

CITY           SKY/WX    TMP DP  RH WIND       PRES   REMARKS
JACKSON        FAIR      36  28  75 N14       30.23R WCI  27
CODY           CLOUDY    39  30  70 N5        30.30S
GREYBULL       FAIR      36  32  85 VRB6      30.27S WCI  31
WORLAND        CLOUDY    41  37  86 S7        30.28R
SHERIDAN       CLOUDY    40  35  83 CALM      30.31R
BUFFALO          N/A    N/A N/A N/A MISG      30.30S
GILLETTE       CLOUDY    31  28  89 N5        30.28S WCI  26
HULETT         CLOUDY    37  30  75 CALM      30.29F
NEWCASTLE      FAIR      32  27  80 N9        30.28S WCI  24

$$
WYZ014>020-022>026-101>103-010900-
CENTRAL WYOMING

CITY           SKY/WX    TMP DP  RH WIND       PRES   REMARKS
BIG PINEY      FAIR      24  21  88 NW5       30.23S WCI  18
PINEDALE       FAIR      30  28  93 NW7       30.22F WCI  23
DUBOIS         NOT AVBL
LANDER         CLOUDY    37  31  78 SW5       30.28S WCI  33
RIVERTON       FAIR      35  32  88 NW10      30.29S WCI  27
CASPER         MOCLDY    33  30  88 NE8       30.27S WCI  26
DOUGLAS        CLOUDY    34  30  85 NW3       30.28R

$$
WYZ021-027>030-104>119-010900-
SOUTHERN WYOMING

CITY           SKY/WX    TMP DP  RH WIND       PRES   REMARKS
EVANSTON       FAIR      32  24  72 E22G35    30.14S WCI  19
FORT BRIDGER   PTSUNNY   32  32 100 E16       30.20F WCI  21
ROCK SPRINGS   CLOUDY    33  27  78 NE16      30.20S WCI  23
DIXON          FAIR      34  22  62 E9        30.16F WCI  27
RAWLINS        CLOUDY    31  28  89 E5        30.24R WCI  26
SARATOGA       CLOUDY    32  27  80 NE10      30.22S WCI  24
LARAMIE        FLURRIES  27  24  89 NE9       30.21S WCI  18
CHEYENNE       LGT SNOW  31  28  89 N13       30.21S FOG     WCI  21
TORRINGTON     CLOUDY    38  33  82 NW8       30.22F WCI  32
PINE BLUFFS    CLOUDY    32  32 100 N16       30.21S WCI  21

$$



USA.gov is the U.S. government's official web portal to all federal, state and local government web resources and services.